Location: Unspecified
(0.0000°N, 0.0000°E)
Time: 11:57:12
(UTC+00:00)

LES 2 - Pass Details

Date: 20 August 2024
Orbit: 2771 x 14805 km, 32.2° (Epoch: 15 September)

Event Time Altitude Azimuth Distance (km) Brightness Sun altitude
Exits shadow 03:00:02 34° 217° (SW) 10,650 ? -44.5°
Maximum altitude 04:07:01 77° 128° (SE) 14,352 ? -28.4°
Drops below altitude 10° 06:09:40 10° 53° (NE) 13,240 ? 1.5°
Sets 06:18:41 0° 55° (NE) 13,095 ? 3.7°
